KC5DAQ-22 Weather Reports


Display with metric or nautical units.
time (UTC)temp
F
wind
direction
speed
MPH
gust
MPH
rain 1hr
in
rain 24hr
in
rain mn
in
humidity
%
barometer
mb
20260503204504 80 185 1.0 7.0 0.00 0.00 0.00 37 1017.6
20260503204402 80 185 3.0 7.0 0.00 0.00 0.00 37 1017.7
20260503204302 80 281 4.0 9.0 0.00 0.00 0.00 38 1017.7
20260503204204 80 244 4.0 10.0 0.00 0.00 0.00 38 1017.6
20260503204103 80 244 4.0 13.0 0.00 0.00 0.00 38 1017.7
20260503204003 81 216 4.0 13.0 0.00 0.00 0.00 37 1017.7
20260503203901 81 182 4.0 13.0 0.00 0.00 0.00 38 1017.7
20260503203802 81 188 3.0 13.0 0.00 0.00 0.00 38 1017.8
20260503203702 81 223 3.0 13.0 0.00 0.00 0.00 38 1017.8
20260503203602 81 127 4.0 13.0 0.00 0.00 0.00 38 1017.8
20260503203504 81 223 5.0 13.0 0.00 0.00 0.00 38 1017.9
20260503203403 81 133 6.0 13.0 0.00 0.00 0.00 37 1017.9
20260503203302 81 195 6.0 13.0 0.00 0.00 0.00 38 1017.8
20260503203203 81 134 4.0 13.0 0.00 0.00 0.00 39 1017.8
20260503203103 80 117 3.0 11.0 0.00 0.00 0.00 39 1017.8
20260503203002 81 109 3.0 11.0 0.00 0.00 0.00 37 1017.9
20260503202902 81 127 4.0 12.0 0.00 0.00 0.00 39 1017.9
20260503202803 81 133 4.0 12.0 0.00 0.00 0.00 38 1017.9
20260503202702 82 94 3.0 12.0 0.00 0.00 0.00 39 1018.0
20260503202602 81 92 4.0 12.0 0.00 0.00 0.00 38 1018.0
20260503202503 81 58 6.0 12.0 0.00 0.00 0.00 38 1017.9
20260503202402 80 51 8.0 12.0 0.00 0.00 0.00 38 1018.0
20260503202304 80 73 7.0 12.0 0.00 0.00 0.00 39 1018.0
20260503202202 81 111 7.0 12.0 0.00 0.00 0.00 38 1018.0
20260503202103 81 102 8.0 12.0 0.00 0.00 0.00 38 1018.0
20260503202001 81 123 4.0 12.0 0.00 0.00 0.00 39 1018.0
20260503201902 81 78 1.0 6.0 0.00 0.00 0.00 37 1018.0
20260503201803 80 145 1.0 9.0 0.00 0.00 0.00 37 1018.0
20260503201703 80 326 2.0 9.0 0.00 0.00 0.00 37 1018.0
20260503201603 80 300 1.0 9.0 0.00 0.00 0.00 37 1018.1
20260503201504 80 72 1.0 9.0 0.00 0.00 0.00 37 1018.1
20260503201402 80 103 3.0 9.0 0.00 0.00 0.00 38 1018.2
20260503201302 80 103 4.0 10.0 0.00 0.00 0.00 39 1018.2
20260503201202 80 113 2.0 10.0 0.00 0.00 0.00 38 1018.2
20260503201103 80 79 2.0 10.0 0.00 0.00 0.00 38 1018.3
20260503201003 80 97 4.0 10.0 0.00 0.00 0.00 38 1018.3
20260503200902 80 96 5.0 11.0 0.00 0.00 0.00 37 1018.3
20260503200803 80 94 2.0 11.0 0.00 0.00 0.00 38 1018.3
20260503200702 80 103 1.0 13.0 0.00 0.00 0.00 38 1018.3
20260503200602 80 244 3.0 13.0 0.00 0.00 0.00 39 1018.4
20260503200502 79 103 5.0 13.0 0.00 0.00 0.00 40 1018.4
20260503200404 79 102 5.0 13.0 0.00 0.00 0.00 39 1018.4
20260503200302 79 96 4.0 15.0 0.00 0.00 0.00 40 1018.4
20260503200203 79 107 5.0 15.0 0.00 0.00 0.00 39 1018.5
20260503200003 79 110 8.0 15.0 0.00 0.00 0.00 39 1018.4
20260503195902 80 99 9.0 15.0 0.00 0.00 0.00 38 1018.4
20260503195802 80 113 8.0 15.0 0.00 0.00 0.00 38 1018.4
20260503195702 80 104 6.0 15.0 0.00 0.00 0.00 40 1018.5
20260503195602 80 118 6.0 15.0 0.00 0.00 0.00 39 1018.5
20260503195502 80 90 7.0 15.0 0.00 0.00 0.00 37 1018.5
20260503195403 81 102 9.0 15.0 0.00 0.00 0.00 38 1018.5
20260503195304 81 99 7.0 15.0 0.00 0.00 0.00 38 1018.6
20260503195202 81 96 6.0 11.0 0.00 0.00 0.00 39 1018.5
20260503195103 81 99 5.0 10.0 0.00 0.00 0.00 38 1018.5
20260503195005 81 65 4.0 10.0 0.00 0.00 0.00 39 1018.5
20260503194902 81 100 3.0 10.0 0.00 0.00 0.00 38 1018.5
20260503194802 81 155 2.0 10.0 0.00 0.00 0.00 37 1018.5
20260503194703 81 209 2.0 10.0 0.00 0.00 0.00 40 1018.5
20260503194602 81 100 2.0 10.0 0.00 0.00 0.00 38 1018.6
20260503194503 81 97 4.0 10.0 0.00 0.00 0.00 37 1018.6
20260503194403 82 135 4.0 10.0 0.00 0.00 0.00 38 1018.6
20260503194302 82 149 3.0 10.0 0.00 0.00 0.00 39 1018.6
20260503194202 81 144 2.0 9.0 0.00 0.00 0.00 38 1018.6
20260503194102 81 99 3.0 9.0 0.00 0.00 0.00 38 1018.6
20260503194004 81 113 3.0 9.0 0.00 0.00 0.00 37 1018.6
20260503193901 81 133 3.0 9.0 0.00 0.00 0.00 37 1018.6
20260503193802 81 28 4.0 10.0 0.00 0.00 0.00 38 1018.6
20260503193703 81 49 5.0 10.0 0.00 0.00 0.00 37 1018.8
20260503193602 81 97 5.0 10.0 0.00 0.00 0.00 38 1018.8
20260503193504 81 93 4.0 10.0 0.00 0.00 0.00 39 1018.8
20260503193403 81 90 4.0 10.0 0.00 0.00 0.00 39 1018.7
20260503193302 81 93 3.0 12.0 0.00 0.00 0.00 38 1018.8
20260503193202 81 158 4.0 12.0 0.00 0.00 0.00 37 1018.7
20260503193102 81 138 3.0 12.0 0.00 0.00 0.00 38 1018.8
20260503193002 81 131 4.0 12.0 0.00 0.00 0.00 38 1018.8
20260503192902 80 87 4.0 12.0 0.00 0.00 0.00 38 1018.8
20260503192802 80 213 3.0 12.0 0.00 0.00 0.00 37 1018.8
20260503192704 81 45 3.0 12.0 0.00 0.00 0.00 37 1018.9
20260503192602 80 73 5.0 12.0 0.00 0.00 0.00 38 1018.9
20260503192502 80 71 8.0 12.0 0.00 0.00 0.00 37 1019.0
20260503192403 81 78 8.0 12.0 0.00 0.00 0.00 37 1019.0
20260503192305 81 80 7.0 10.0 0.00 0.00 0.00 36 1019.0
20260503192202 81 89 6.0 10.0 0.00 0.00 0.00 38 1019.0
20260503192102 81 162 4.0 9.0 0.00 0.00 0.00 39 1019.0
20260503192004 81 185 2.0 9.0 0.00 0.00 0.00 37 1018.9
20260503191902 81 49 1.0 9.0 0.00 0.00 0.00 37 1019.0
20260503191802 81 78 3.0 10.0 0.00 0.00 0.00 37 1019.0
20260503191702 81 166 2.0 10.0 0.00 0.00 0.00 38 1019.0
20260503191603 81 189 1.0 10.0 0.00 0.00 0.00 37 1019.0
20260503191503 80 75 2.0 10.0 0.00 0.00 0.00 38 1019.1
20260503191402 80 13 4.0 10.0 0.00 0.00 0.00 37 1019.1
20260503191303 80 23 5.0 10.0 0.00 0.00 0.00 37 1019.1
20260503191203 80 35 5.0 10.0 0.00 0.00 0.00 37 1019.2
20260503191101 81 44 5.0 11.0 0.00 0.00 0.00 36 1019.2
20260503191004 81 52 6.0 11.0 0.00 0.00 0.00 36 1019.1
20260503190904 81 89 6.0 11.0 0.00 0.00 0.00 37 1019.2
20260503190803 81 87 3.0 11.0 0.00 0.00 0.00 37 1019.2
20260503190701 81 161 3.0 11.0 0.00 0.00 0.00 37 1019.2
20260503190601 80 16 4.0 11.0 0.00 0.00 0.00 37 1019.2
20260503190502 80 78 5.0 11.0 0.00 0.00 0.00 37 1019.2
20260503190403 80 102 6.0 11.0 0.00 0.00 0.00 36 1019.2
20260503190303 81 83 7.0 11.0 0.00 0.00 0.00 37 1019.2
20260503190203 81 82 7.0 11.0 0.00 0.00 0.00 37 1019.2
20260503190004 81 110 3.0 9.0 0.00 0.00 0.00 38 1019.1
20260503185903 81 62 2.0 9.0 0.00 0.00 0.00 37 1019.2
20260503185802 81 111 1.0 9.0 0.00 0.00 0.00 37 1019.2
20260503185702 80 125 3.0 9.0 0.00 0.00 0.00 37 1019.2
20260503185603 80 97 6.0 9.0 0.00 0.00 0.00 37 1019.3
20260503185502 81 63 6.0 9.0 0.00 0.00 0.00 38 1019.2
20260503185402 80 93 4.0 7.0 0.00 0.00 0.00 38 1019.2
20260503185304 80 31 4.0 7.0 0.00 0.00 0.00 39 1019.3
20260503185203 80 96 5.0 7.0 0.00 0.00 0.00 38 1019.3
20260503185103 80 93 6.0 7.0 0.00 0.00 0.00 38 1019.2
20260503185003 80 117 5.0 7.0 0.00 0.00 0.00 38 1019.3
20260503184903 81 120 5.0 7.0 0.00 0.00 0.00 39 1019.3
20260503184802 81 213 3.0 7.0 0.00 0.00 0.00 38 1019.3
20260503184703 80 250 2.0 7.0 0.00 0.00 0.00 39 1019.3
20260503184558 80 262 4.0 7.0 0.00 0.00 0.00 38 1019.3
20260503184457 80 316 5.0 9.0 0.00 0.00 0.00 37 1019.3
20260503184355 80 240 4.0 9.0 0.00 0.00 0.00 37 1019.3
20260503184256 80 285 3.0 9.0 0.00 0.00 0.00 37 1019.4
20260503184152 80 245 3.0 9.0 0.00 0.00 0.00 37 1019.4
20260503184051 80 224 3.0 9.0 0.00 0.00 0.00 38 1019.4
20260503183950 80 245 2.0 11.0 0.00 0.00 0.00 38 1019.4
20260503183848 79 303 3.0 11.0 0.00 0.00 0.00 37 1019.5
20260503183745 79 303 4.0 11.0 0.00 0.00 0.00 37 1019.5
20260503183645 80 298 4.0 13.0 0.00 0.00 0.00 36 1019.5
20260503183543 81 265 2.0 13.0 0.00 0.00 0.00 36 1019.6
20260503183442 80 47 3.0 13.0 0.00 0.00 0.00 37 1019.5
20260503183342 80 48 4.0 13.0 0.00 0.00 0.00 38 1019.6
20260503183240 80 82 4.0 15.0 0.00 0.00 0.00 38 1019.6
20260503183139 80 100 6.0 15.0 0.00 0.00 0.00 38 1019.5
20260503183036 80 83 7.0 15.0 0.00 0.00 0.00 37 1019.6
20260503182935 80 92 7.0 15.0 0.00 0.00 0.00 37 1019.6
20260503182833 80 123 9.0 15.0 0.00 0.00 0.00 37 1019.7
20260503182732 80 104 8.0 15.0 0.00 0.00 0.00 37 1019.7
20260503182630 81 106 8.0 15.0 0.00 0.00 0.00 38 1019.7
20260503182531 81 90 9.0 15.0 0.00 0.00 0.00 36 1019.7
20260503182433 81 82 10.0 15.0 0.00 0.00 0.00 37 1019.7
20260503182331 81 93 8.0 15.0 0.00 0.00 0.00 38 1019.7
20260503182230 81 78 6.0 11.0 0.00 0.00 0.00 37 1019.6
20260503182132 81 85 6.0 10.0 0.00 0.00 0.00 37 1019.7
20260503182032 81 90 4.0 7.0 0.00 0.00 0.00 39 1019.8
20260503181930 80 31 3.0 7.0 0.00 0.00 0.00 38 1019.8
20260503181828 80 61 3.0 7.0 0.00 0.00 0.00 37 1019.7
20260503181728 80 31 2.0 7.0 0.00 0.00 0.00 37 1019.8
20260503181624 80 63 2.0 10.0 0.00 0.00 0.00 37 1019.8
20260503181525 80 59 4.0 12.0 0.00 0.00 0.00 37 1019.8
20260503181422 80 68 5.0 12.0 0.00 0.00 0.00 37 1019.8
20260503181321 80 96 3.0 12.0 0.00 0.00 0.00 38 1019.9
20260503181221 80 255 1.0 12.0 0.00 0.00 0.00 38 1019.8
20260503181117 79 230 0.0 12.0 0.00 0.00 0.00 37 1019.9
20260503181017 79 234 0.0 12.0 0.00 0.00 0.00 36 1019.9
20260503180914 80 214 3.0 12.0 0.00 0.00 0.00 37 1019.9
20260503180813 80 83 4.0 12.0 0.00 0.00 0.00 37 1019.9
20260503180712 80 90 6.0 12.0 0.00 0.00 0.00 37 1019.9
20260503180610 79 0 6.0 12.0 0.00 0.00 0.00 38 1020.0
20260503180510 79 109 5.0 10.0 0.00 0.00 0.00 37 1019.9
20260503180409 80 85 7.0 10.0 0.00 0.00 0.00 37 1019.9
20260503180308 80 96 5.0 10.0 0.00 0.00 0.00 39 1020.0
20260503180205 80 31 3.0 9.0 0.00 0.00 0.00 37 1019.9
20260503180107 79 80 5.0 9.0 0.00 0.00 0.00 37 1020.0
20260503180004 80 109 6.0 9.0 0.00 0.00 0.00 37 1020.0
20260503175906 80 94 4.0 9.0 0.00 0.00 0.00 37 1020.1
20260503175805 80 117 2.0 7.0 0.00 0.00 0.00 38 1020.1
20260503175703 79 145 2.0 6.0 0.00 0.00 0.00 37 1020.0
20260503175605 79 128 3.0 6.0 0.00 0.00 0.00 39 1020.1
20260503175504 79 131 2.0 6.0 0.00 0.00 0.00 37 1020.1
20260503175404 79 110 3.0 6.0 0.00 0.00 0.00 38 1020.2
20260503175304 79 89 2.0 6.0 0.00 0.00 0.00 37 1020.2
20260503175205 79 66 2.0 6.0 0.00 0.00 0.00 37 1020.2
20260503175105 79 66 2.0 7.0 0.00 0.00 0.00 37 1020.2
20260503175004 79 66 3.0 7.0 0.00 0.00 0.00 37 1020.2
20260503174904 79 66 4.0 7.0 0.00 0.00 0.00 37 1020.3
20260503174804 79 85 4.0 7.0 0.00 0.00 0.00 37 1020.3
20260503174704 80 93 4.0 10.0 0.00 0.00 0.00 37 1020.4
20260503174604 80 82 3.0 10.0 0.00 0.00 0.00 38 1020.4
20260503174505 80 168 3.0 10.0 0.00 0.00 0.00 38 1020.4
20260503174404 80 168 3.0 10.0 0.00 0.00 0.00 38 1020.3
20260503174304 80 114 4.0 10.0 0.00 0.00 0.00 40 1020.5
20260503174204 79 128 6.0 10.0 0.00 0.00 0.00 39 1020.4
20260503174105 79 87 6.0 10.0 0.00 0.00 0.00 37 1020.5
20260503174003 80 89 5.0 10.0 0.00 0.00 0.00 39 1020.5
20260503173904 79 182 5.0 10.0 0.00 0.00 0.00 39 1020.5
20260503173803 79 186 4.0 10.0 0.00 0.00 0.00 40 1020.6
20260503173704 79 183 4.0 7.0 0.00 0.00 0.00 40 1020.6
20260503173603 78 190 3.0 7.0 0.00 0.00 0.00 40 1020.6
20260503173505 78 103 2.0 7.0 0.00 0.00 0.00 39 1020.6
20260503173404 79 238 2.0 7.0 0.00 0.00 0.00 39 1020.6
20260503173304 79 221 3.0 7.0 0.00 0.00 0.00 40 1020.6
20260503173204 79 107 4.0 7.0 0.00 0.00 0.00 39 1020.6
20260503173104 79 185 3.0 7.0 0.00 0.00 0.00 40 1020.6
20260503173004 79 210 2.0 7.0 0.00 0.00 0.00 40 1020.7
20260503172903 79 28 2.0 7.0 0.00 0.00 0.00 39 1020.7
20260503172804 79 28 2.0 7.0 0.00 0.00 0.00 39 1020.8
20260503172704 79 16 2.0 7.0 0.00 0.00 0.00 39 1020.7
20260503172604 79 66 2.0 7.0 0.00 0.00 0.00 39 1020.7
20260503172503 79 72 4.0 9.0 0.00 0.00 0.00 39 1020.8
20260503172404 79 113 4.0 9.0 0.00 0.00 0.00 40 1020.8
20260503172305 79 85 2.0 9.0 0.00 0.00 0.00 42 1020.8
20260503172202 79 144 2.0 9.0 0.00 0.00 0.00 42 1020.8
20260503172101 78 193 3.0 10.0 0.00 0.00 0.00 41 1020.8
20260503172003 78 207 3.0 10.0 0.00 0.00 0.00 41 1020.9
20260503171901 78 106 3.0 10.0 0.00 0.00 0.00 40 1020.9
20260503171800 78 89 4.0 10.0 0.00 0.00 0.00 40 1020.9
20260503171658 79 120 6.0 10.0 0.00 0.00 0.00 40 1020.9
20260503171553 79 114 7.0 10.0 0.00 0.00 0.00 40 1021.0
20260503171453 80 118 6.0 10.0 0.00 0.00 0.00 40 1020.9
20260503171354 80 113 5.0 10.0 0.00 0.00 0.00 42 1020.9
20260503171252 80 168 6.0 10.0 0.00 0.00 0.00 41 1020.8
20260503171151 80 144 6.0 10.0 0.00 0.00 0.00 42 1020.8
20260503171048 80 186 4.0 10.0 0.00 0.00 0.00 42 1020.9
20260503170946 80 62 3.0 10.0 0.00 0.00 0.00 41 1020.8
20260503170846 80 121 5.0 10.0 0.00 0.00 0.00 41 1020.9
20260503170744 80 117 4.0 10.0 0.00 0.00 0.00 40 1020.8
20260503170643 80 80 3.0 6.0 0.00 0.00 0.00 41 1020.8
20260503170541 80 82 2.0 4.0 0.00 0.00 0.00 42 1020.8
20260503170440 80 247 2.0 4.0 0.00 0.00 0.00 41 1020.9
20260503170339 80 219 1.0 5.0 0.00 0.00 0.00 40 1020.8
20260503170238 80 11 0.0 5.0 0.00 0.00 0.00 39 1020.9
20260503170136 80 11 0.0 5.0 0.00 0.00 0.00 40 1020.9
20260503160159 77 96 1.0 9.0 0.00 0.00 0.00 42 1021.1
20260503151009 75 207 4.0 10.0 0.00 0.00 0.00 52 1020.9
20260503150906 75 189 4.0 10.0 0.00 0.00 0.00 52 1020.9
20260503150804 75 199 5.0 10.0 0.00 0.00 0.00 51 1020.9
20260503150703 75 182 4.0 11.0 0.00 0.00 0.00 54 1020.9
20260503150603 75 154 2.0 11.0 0.00 0.00 0.00 55 1020.8
20260503150502 74 169 3.0 11.0 0.00 0.00 0.00 54 1020.8
20260503150403 74 203 4.0 11.0 0.00 0.00 0.00 53 1020.8
20260503150303 74 145 5.0 11.0 0.00 0.00 0.00 53 1020.8
20260503150202 74 189 3.0 11.0 0.00 0.00 0.00 55 1020.8
20260503140302 69 56 0.0 3.0 0.00 0.00 0.00 70 1020.7
20260503140200 69 51 0.0 2.0 0.00 0.00 0.00 71 1020.7
20260503131358 64 13 0.0 3.0 0.00 0.00 0.00 83 1020.5
20260503131258 63 13 0.0 3.0 0.00 0.00 0.00 83 1020.5
20260503131157 63 13 0.0 3.0 0.00 0.00 0.00 84 1020.4
20260503131058 63 13 1.0 3.0 0.00 0.00 0.00 84 1020.5
20260503130958 63 13 1.0 3.0 0.00 0.00 0.00 85 1020.4
20260503130859 63 13 1.0 3.0 0.00 0.00 0.00 85 1020.4
20260503130758 62 13 1.0 3.0 0.00 0.00 0.00 85 1020.4
20260503130658 62 13 1.0 3.0 0.00 0.00 0.00 85 1020.5
20260503130557 62 13 2.0 3.0 0.00 0.00 0.00 86 1020.4
20260503130458 62 13 2.0 3.0 0.00 0.00 0.00 86 1020.3
20260503130359 62 13 2.0 3.0 0.00 0.00 0.00 87 1020.4
20260503130258 62 13 1.0 3.0 0.00 0.00 0.00 87 1020.4
20260503130157 62 13 1.0 3.0 0.00 0.00 0.00 87 1020.3
20260503120157 56 13 0.0 0.0 0.00 0.00 0.00 93 1019.9
20260503110754 56 11 0.0 2.0 0.00 0.00 0.00 92 1019.4
20260503110654 56 11 0.0 2.0 0.00 0.00 0.00 92 1019.4
20260503110556 56 11 0.0 2.0 0.00 0.00 0.00 92 1019.5
20260503110456 56 11 1.0 2.0 0.00 0.00 0.00 92 1019.5
20260503110355 56 11 1.0 2.0 0.00 0.00 0.00 92 1019.4
20260503110255 56 11 1.0 2.0 0.00 0.00 0.00 92 1019.5
20260503110154 56 7 0.0 0.0 0.00 0.00 0.00 92 1019.5
20260503100257 56 7 0.0 0.0 0.00 0.00 0.00 91 1019.1
20260503100156 56 7 0.0 0.0 0.00 0.00 0.00 91 1019.0
20260503090454 57 8 0.0 0.0 0.00 0.00 0.00 89 1018.8
20260503090352 57 7 0.0 0.0 0.00 0.00 0.00 89 1018.9
20260503090251 57 7 0.0 0.0 0.00 0.00 0.00 89 1018.9
20260503090152 57 7 0.0 0.0 0.00 0.00 0.00 90 1018.9
20260503081550 58 7 0.0 0.0 0.00 0.00 0.00 87 1018.9
20260503081450 59 7 0.0 0.0 0.00 0.00 0.00 87 1019.1
20260503081350 59 7 0.0 0.0 0.00 0.00 0.00 88 1019.1
20260503081252 59 7 0.0 0.0 0.00 0.00 0.00 87 1019.0
20260503081151 59 7 0.0 0.0 0.00 0.00 0.00 87 1019.1
20260503081050 59 7 0.0 0.0 0.00 0.00 0.00 87 1019.1
20260503080951 59 7 0.0 0.0 0.00 0.00 0.00 87 1019.1
20260503080852 59 7 0.0 0.0 0.00 0.00 0.00 87 1019.1
20260503080750 59 7 0.0 0.0 0.00 0.00 0.00 87 1019.1
20260503080651 59 7 0.0 0.0 0.00 0.00 0.00 86 1019.1
20260503080551 59 7 0.0 0.0 0.00 0.00 0.00 87 1019.0
20260503080451 59 7 0.0 0.0 0.00 0.00 0.00 87 1019.0
20260503080350 59 7 0.0 0.0 0.00 0.00 0.00 87 1019.0
20260503080250 59 7 0.0 0.0 0.00 0.00 0.00 87 1019.0
20260503080150 59 7 0.0 0.0 0.00 0.00 0.00 87 1019.0
20260503072924 60 7 0.0 0.0 0.00 0.00 0.00 84 1018.9
20260503072823 60 7 0.0 0.0 0.00 0.00 0.00 84 1018.9
20260503072720 60 7 0.0 0.0 0.00 0.00 0.00 84 1018.9
20260503072617 60 7 0.0 0.0 0.00 0.00 0.00 84 1018.8
20260503072516 60 7 0.0 0.0 0.00 0.00 0.00 85 1018.9
20260503072414 60 7 0.0 0.0 0.00 0.00 0.00 84 1018.9
20260503072314 60 7 0.0 0.0 0.00 0.00 0.00 84 1018.9
20260503072212 60 7 0.0 0.0 0.00 0.00 0.00 84 1018.9
20260503072111 60 7 0.0 0.0 0.00 0.00 0.00 85 1019.0
20260503072010 60 7 0.0 0.0 0.00 0.00 0.00 85 1019.0
20260503071909 60 7 0.0 0.0 0.00 0.00 0.00 85 1018.9
20260503071806 60 7 0.0 0.0 0.00 0.00 0.00 85 1018.9
20260503071702 60 7 0.0 0.0 0.00 0.00 0.00 85 1018.9
20260503071605 59 7 0.0 0.0 0.00 0.00 0.00 85 1019.0
20260503071505 59 7 0.0 0.0 0.00 0.00 0.00 86 1019.0
20260503071402 59 7 0.0 0.0 0.00 0.00 0.00 86 1019.0
20260503071303 59 7 0.0 0.0 0.00 0.00 0.00 86 1018.9
20260503071204 59 7 0.0 0.0 0.00 0.00 0.00 86 1019.0
20260503071102 59 7 0.0 0.0 0.00 0.00 0.00 85 1019.0
20260503071002 59 7 0.0 0.0 0.00 0.00 0.00 85 1019.0
20260503070904 60 7 0.0 0.0 0.00 0.00 0.00 85 1019.0
20260503070802 60 7 0.0 0.0 0.00 0.00 0.00 86 1019.0
20260503070702 59 7 0.0 0.0 0.00 0.00 0.00 86 1019.0
20260503070604 60 7 0.0 0.0 0.00 0.00 0.00 86 1019.1
20260503070504 59 7 0.0 0.0 0.00 0.00 0.00 86 1019.0
20260503070402 59 7 0.0 0.0 0.00 0.00 0.00 86 1019.1
20260503070302 59 7 0.0 0.0 0.00 0.00 0.00 86 1019.1
20260503070204 59 7 0.0 0.0 0.00 0.00 0.00 86 1019.0
20260503060303 60 8 0.0 0.0 0.00 0.00 0.00 84 1019.1
20260503060204 60 8 0.0 0.0 0.00 0.00 0.00 84 1019.1
20260503055102 60 8 0.0 2.0 0.00 0.00 0.00 84 1019.3
20260503055004 60 8 0.0 2.0 0.00 0.00 0.00 84 1019.3
20260503054902 61 8 0.0 2.0 0.00 0.00 0.00 84 1019.3
20260503054802 61 8 1.0 2.0 0.00 0.00 0.00 84 1019.3
20260503054703 61 8 1.0 2.0 0.00 0.00 0.00 84 1019.2
20260503054602 61 8 1.0 2.0 0.00 0.00 0.00 83 1019.2
20260503054502 61 8 1.0 2.0 0.00 0.00 0.00 84 1019.2
20260503054403 61 8 2.0 2.0 0.00 0.00 0.00 83 1019.2
20260503054303 61 8 1.0 2.0 0.00 0.00 0.00 84 1019.1
20260503054202 61 8 1.0 2.0 0.00 0.00 0.00 84 1019.2
20260503054103 61 8 1.0 2.0 0.00 0.00 0.00 84 1019.1
20260503054005 61 8 2.0 2.0 0.00 0.00 0.00 83 1019.0
20260503053902 61 8 1.0 2.0 0.00 0.00 0.00 83 1019.1
20260503053804 61 8 0.0 0.0 0.00 0.00 0.00 83 1019.0
20260503053704 61 8 0.0 0.0 0.00 0.00 0.00 83 1019.0
20260503053603 61 8 0.0 0.0 0.00 0.00 0.00 84 1019.0
20260503053503 61 8 0.0 0.0 0.00 0.00 0.00 84 1018.9
20260503053403 61 8 0.0 0.0 0.00 0.00 0.00 83 1019.0
20260503053303 61 8 0.0 0.0 0.00 0.00 0.00 84 1019.0
20260503053202 61 8 0.0 0.0 0.00 0.00 0.00 84 1018.9
20260503053102 61 8 0.0 0.0 0.00 0.00 0.00 84 1018.9
20260503053003 61 8 0.0 1.0 0.00 0.00 0.00 84 1018.9
20260503052902 61 8 0.0 1.0 0.00 0.00 0.00 84 1018.9
20260503052802 61 8 0.0 2.0 0.00 0.00 0.00 84 1018.9
20260503052702 61 8 0.0 2.0 0.00 0.00 0.00 84 1018.9
20260503052602 61 8 0.0 2.0 0.00 0.00 0.00 84 1018.9
20260503052502 61 8 0.0 2.0 0.00 0.00 0.00 84 1018.9
20260503052403 61 8 0.0 2.0 0.00 0.00 0.00 84 1019.0
20260503052305 61 8 0.0 2.0 0.00 0.00 0.00 84 1019.0
20260503052203 61 8 0.0 2.0 0.00 0.00 0.00 84 1019.0
20260503052102 61 8 1.0 2.0 0.00 0.00 0.00 84 1019.0
20260503052002 61 8 1.0 2.0 0.00 0.00 0.00 84 1019.0
20260503051904 61 8 2.0 2.0 0.00 0.00 0.00 84 1019.0
20260503051802 61 8 1.0 2.0 0.00 0.00 0.00 84 1019.0
20260503051702 61 8 1.0 2.0 0.00 0.00 0.00 83 1018.9
20260503051603 61 8 1.0 2.0 0.00 0.00 0.00 83 1019.0
20260503051502 61 8 1.0 2.0 0.00 0.00 0.00 83 1019.0
20260503051403 61 8 1.0 2.0 0.00 0.00 0.00 83 1019.0
20260503051302 61 8 1.0 2.0 0.00 0.00 0.00 83 1019.0
20260503051203 61 8 0.0 0.0 0.00 0.00 0.00 82 1019.0
20260503051103 61 8 0.0 0.0 0.00 0.00 0.00 82 1019.0
20260503050948 61 8 0.0 0.0 0.00 0.00 0.00 82 1019.0
20260503050847 61 8 0.0 0.0 0.00 0.00 0.00 82 1019.1
20260503050746 61 8 0.0 0.0 0.00 0.00 0.00 82 1018.9
20260503050646 61 8 0.0 0.0 0.00 0.00 0.00 81 1018.9
20260503050548 62 8 0.0 0.0 0.00 0.00 0.00 82 1018.9
20260503050448 62 8 0.0 0.0 0.00 0.00 0.00 82 1018.9
20260503050346 62 8 0.0 0.0 0.00 0.00 0.00 82 1018.9
20260503050246 62 8 0.0 0.0 0.00 0.00 0.00 81 1018.9
20260503050148 62 8 0.0 0.0 0.00 0.00 0.00 81 1018.9
20260503050046 62 8 0.0 0.0 0.00 0.00 0.00 81 1018.9
20260503045946 62 8 0.0 0.0 0.00 0.00 0.00 81 1018.8
20260503045847 62 8 0.0 0.0 0.00 0.00 0.00 81 1018.9
20260503045747 62 8 0.0 0.0 0.00 0.00 0.00 81 1018.9
20260503045647 62 8 0.0 0.0 0.00 0.00 0.00 81 1018.9
20260503045546 62 8 0.0 0.0 0.00 0.00 0.00 81 1018.9
20260503045444 62 8 0.0 0.0 0.00 0.00 0.00 80 1018.8
20260503045341 62 8 0.0 0.0 0.00 0.00 0.00 80 1018.9
20260503045239 62 8 0.0 0.0 0.00 0.00 0.00 80 1018.8
20260503045137 62 8 0.0 0.0 0.00 0.00 0.00 80 1018.8
20260503045037 62 8 0.0 0.0 0.00 0.00 0.00 80 1018.8
20260503044934 62 8 0.0 0.0 0.00 0.00 0.00 79 1018.7
20260503044833 62 8 0.0 0.0 0.00 0.00 0.00 79 1018.8
20260503044732 62 8 0.0 0.0 0.00 0.00 0.00 79 1018.7
20260503044631 62 8 0.0 0.0 0.00 0.00 0.00 78 1018.7
20260503044532 62 8 0.0 0.0 0.00 0.00 0.00 78 1018.8
20260503044431 62 8 0.0 0.0 0.00 0.00 0.00 78 1018.7
20260503044332 62 8 0.0 0.0 0.00 0.00 0.00 78 1018.7
20260503044231 62 8 0.0 0.0 0.00 0.00 0.00 79 1018.7
20260503044133 62 8 0.0 0.0 0.00 0.00 0.00 79 1018.7
20260503044033 62 8 0.0 0.0 0.00 0.00 0.00 79 1018.7
20260503043930 62 8 0.0 0.0 0.00 0.00 0.00 78 1018.7
20260503043831 62 8 0.0 0.0 0.00 0.00 0.00 78 1018.7
20260503043731 62 8 0.0 0.0 0.00 0.00 0.00 78 1018.7
20260503043631 62 8 0.0 0.0 0.00 0.00 0.00 79 1018.6
20260503043531 62 8 0.0 0.0 0.00 0.00 0.00 78 1018.6
20260503043432 62 8 0.0 0.0 0.00 0.00 0.00 78 1018.6
20260503043331 62 8 0.0 0.0 0.00 0.00 0.00 78 1018.6
20260503043231 62 8 0.0 0.0 0.00 0.00 0.00 78 1018.6
20260503043133 62 8 0.0 0.0 0.00 0.00 0.00 78 1018.7
20260503043031 62 8 0.0 1.0 0.00 0.00 0.00 77 1018.7
20260503042931 62 8 0.0 1.0 0.00 0.00 0.00 77 1018.7
20260503042830 63 8 0.0 1.0 0.00 0.00 0.00 76 1018.6
20260503042732 63 8 0.0 1.0 0.00 0.00 0.00 76 1018.7
20260503042631 63 8 0.0 1.0 0.00 0.00 0.00 75 1018.6
20260503042531 63 8 0.0 1.0 0.00 0.00 0.00 75 1018.7
20260503042433 63 8 0.0 1.0 0.00 0.00 0.00 74 1018.7
20260503042332 64 8 0.0 1.0 0.00 0.00 0.00 74 1018.7
20260503042232 64 8 0.0 1.0 0.00 0.00 0.00 73 1018.7
20260503042132 64 8 0.0 1.0 0.00 0.00 0.00 72 1018.7
20260503042032 64 8 0.0 0.0 0.00 0.00 0.00 73 1018.7
20260503041929 64 8 0.0 0.0 0.00 0.00 0.00 73 1018.7
20260503041828 64 8 0.0 0.0 0.00 0.00 0.00 73 1018.8
20260503041727 64 8 0.0 0.0 0.00 0.00 0.00 74 1018.8
20260503041626 63 8 0.0 0.0 0.00 0.00 0.00 74 1018.8
20260503041524 63 8 0.0 0.0 0.00 0.00 0.00 74 1018.8
20260503041422 63 8 0.0 0.0 0.00 0.00 0.00 75 1018.8
20260503041321 63 8 0.0 0.0 0.00 0.00 0.00 75 1018.8
20260503041220 63 8 0.0 0.0 0.00 0.00 0.00 76 1018.9
20260503041118 63 8 0.0 0.0 0.00 0.00 0.00 76 1018.8
20260503041017 63 8 0.0 0.0 0.00 0.00 0.00 76 1018.8
20260503040914 62 8 0.0 0.0 0.00 0.00 0.00 76 1018.9
20260503040814 63 8 0.0 0.0 0.00 0.00 0.00 76 1018.8
20260503040712 63 8 0.0 0.0 0.00 0.00 0.00 76 1018.8
20260503040610 63 8 0.0 0.0 0.00 0.00 0.00 76 1018.8
20260503040510 63 8 0.0 0.0 0.00 0.00 0.00 74 1018.9
20260503040403 63 8 0.0 0.0 0.00 0.00 0.00 73 1018.9
20260503040304 64 8 0.0 0.0 0.00 0.00 0.00 73 1018.8
20260503040203 64 8 0.0 0.0 0.00 0.00 0.00 73 1018.8
20260503040104 64 8 0.0 0.0 0.00 0.00 0.00 73 1018.7
20260503040004 64 8 0.0 0.0 0.00 0.00 0.00 73 1018.7
20260503035902 64 8 0.0 0.0 0.00 0.00 0.00 73 1018.7
20260503035803 64 8 0.0 0.0 0.00 0.00 0.00 72 1018.8
20260503035703 64 8 0.0 0.0 0.00 0.00 0.00 73 1018.7
20260503035603 64 8 0.0 0.0 0.00 0.00 0.00 72 1018.8
20260503035504 64 8 0.0 0.0 0.00 0.00 0.00 72 1018.7
20260503035405 64 8 0.0 0.0 0.00 0.00 0.00 72 1018.7
20260503035304 64 8 0.0 0.0 0.00 0.00 0.00 72 1018.7
20260503035202 64 8 0.0 0.0 0.00 0.00 0.00 72 1018.7
20260503035103 64 8 0.0 0.0 0.00 0.00 0.00 73 1018.6
20260503035003 64 8 0.0 0.0 0.00 0.00 0.00 73 1018.5
20260503034903 64 8 0.0 0.0 0.00 0.00 0.00 73 1018.6
20260503034804 64 8 0.0 0.0 0.00 0.00 0.00 73 1018.6
20260503034702 64 8 0.0 0.0 0.00 0.00 0.00 73 1018.5
20260503034602 63 8 0.0 0.0 0.00 0.00 0.00 73 1018.4
20260503034501 63 8 0.0 0.0 0.00 0.00 0.00 74 1018.5
20260503034403 63 8 0.0 0.0 0.00 0.00 0.00 74 1018.4
20260503034302 63 8 0.0 0.0 0.00 0.00 0.00 75 1018.4
20260503034203 63 8 0.0 1.0 0.00 0.00 0.00 76 1018.4
20260503034103 63 8 0.0 2.0 0.00 0.00 0.00 75 1018.4
20260503034004 63 8 0.0 2.0 0.00 0.00 0.00 75 1018.4
20260503033902 63 8 0.0 2.0 0.00 0.00 0.00 75 1018.4
20260503033802 63 8 0.0 2.0 0.00 0.00 0.00 75 1018.3
20260503033702 63 8 0.0 2.0 0.00 0.00 0.00 75 1018.4
20260503033603 63 8 0.0 2.0 0.00 0.00 0.00 76 1018.4
20260503033502 63 8 0.0 2.0 0.00 0.00 0.00 76 1018.4
20260503033402 63 8 0.0 2.0 0.00 0.00 0.00 75 1018.3
20260503033302 63 8 0.0 2.0 0.00 0.00 0.00 75 1018.3
20260503033202 63 8 1.0 2.0 0.00 0.00 0.00 75 1018.3
20260503033102 63 8 1.0 2.0 0.00 0.00 0.00 76 1018.2
20260503033004 63 8 1.0 2.0 0.00 0.00 0.00 76 1018.2
20260503032902 63 8 1.0 2.0 0.00 0.00 0.00 76 1018.2
20260503032802 63 8 1.0 2.0 0.00 0.00 0.00 76 1018.2
20260503032704 63 8 1.0 2.0 0.00 0.00 0.00 76 1018.2
20260503032603 63 8 2.0 2.0 0.00 0.00 0.00 76 1018.2
20260503032503 63 8 2.0 2.0 0.00 0.00 0.00 76 1018.2
20260503032403 63 8 2.0 2.0 0.00 0.00 0.00 75 1018.2
20260503032304 63 8 2.0 2.0 0.00 0.00 0.00 75 1018.1
20260503032202 63 8 1.0 2.0 0.00 0.00 0.00 75 1018.2
20260503032102 64 8 1.0 2.0 0.00 0.00 0.00 75 1018.2
20260503032004 64 8 2.0 2.0 0.00 0.00 0.00 75 1018.1
20260503031903 64 8 1.0 2.0 0.00 0.00 0.00 75 1018.2
20260503031803 64 8 0.0 2.0 0.00 0.00 0.00 75 1018.2
20260503031703 64 8 0.0 0.0 0.00 0.00 0.00 75 1018.2
20260503031603 64 8 0.0 0.0 0.00 0.00 0.00 75 1018.2
20260503031503 64 8 0.0 0.0 0.00 0.00 0.00 74 1018.1
20260503031402 64 8 0.0 0.0 0.00 0.00 0.00 74 1018.1
20260503031304 64 8 0.0 0.0 0.00 0.00 0.00 74 1018.1
20260503031159 64 8 0.0 0.0 0.00 0.00 0.00 74 1018.2
20260503031059 64 8 0.0 0.0 0.00 0.00 0.00 74 1018.1
20260503030957 64 8 0.0 1.0 0.00 0.00 0.00 74 1018.1
20260503030858 64 8 0.0 2.0 0.00 0.00 0.00 74 1018.1
20260503030755 64 8 0.0 2.0 0.00 0.00 0.00 74 1018.1
20260503030654 64 8 0.0 2.0 0.00 0.01 0.00 75 1018.1
20260503030553 64 8 0.0 2.0 0.00 0.01 0.00 75 1018.1
20260503030451 64 8 0.0 2.0 0.00 0.01 0.00 75 1018.1
20260503030349 64 8 0.0 2.0 0.00 0.01 0.00 75 1018.2
20260503030248 64 8 0.0 2.0 0.00 0.01 0.00 75 1018.2
20260503030147 64 8 0.0 2.0 0.00 0.01 0.00 74 1018.2
20260503030045 64 8 1.0 2.0 0.00 0.01 0.00 73 1018.2
20260503025944 64 8 1.0 2.0 0.00 0.01 0.00 73 1018.2
20260503025843 64 8 1.0 2.0 0.00 0.01 0.00 73 1018.2
20260503025815 64 7 1.0 2.0 0.00 0.01 0.00 73 1018.2
20260503025645 64 7 0.0 2.0 0.00 0.01 0.00 73 1018.2
20260503025545 64 7 0.0 2.0 0.00 0.01 0.00 73 1018.2
20260503025444 64 7 0.0 2.0 0.00 0.01 0.00 73 1018.1
20260503025344 64 7 0.0 2.0 0.00 0.01 0.00 73 1018.2
20260503025243 64 7 0.0 2.0 0.00 0.01 0.00 73 1018.1
20260503025143 64 7 0.0 2.0 0.00 0.01 0.00 73 1018.1
20260503025043 64 7 1.0 2.0 0.00 0.01 0.00 73 1018.1
20260503024945 64 7 1.0 2.0 0.00 0.01 0.00 73 1018.2
20260503024843 64 7 1.0 2.0 0.00 0.01 0.00 73 1018.1
20260503024744 64 7 1.0 2.0 0.00 0.01 0.00 73 1018.1
20260503024644 64 7 2.0 2.0 0.00 0.01 0.00 72 1018.1
20260503024543 64 7 1.0 2.0 0.00 0.01 0.00 72 1018.1
20260503024444 65 7 1.0 2.0 0.00 0.01 0.00 72 1018.1
20260503024345 65 7 1.0 2.0 0.00 0.01 0.00 72 1018.1
20260503024244 65 8 1.0 2.0 0.00 0.01 0.00 72 1018.1
20260503024143 65 8 1.0 2.0 0.00 0.01 0.00 72 1018.1
20260503024043 65 8 1.0 2.0 0.00 0.01 0.00 70 1018.1
20260503023944 65 8 0.0 2.0 0.00 0.01 0.00 70 1018.1
20260503023844 65 8 0.0 2.0 0.00 0.01 0.00 70 1018.1
20260503023743 65 8 1.0 2.0 0.00 0.01 0.00 70 1018.1
20260503023646 66 8 1.0 2.0 0.00 0.01 0.00 69 1018.0
20260503023544 66 8 2.0 2.0 0.00 0.01 0.00 69 1018.1
20260503023442 66 8 1.0 2.0 0.00 0.01 0.00 70 1018.1
20260503023343 66 8 1.0 2.0 0.00 0.01 0.00 70 1018.0
20260503023245 66 8 1.0 2.0 0.00 0.02 0.00 69 1018.0
20260503023144 66 8 1.0 2.0 0.00 0.02 0.00 69 1018.0
20260503023043 66 8 1.0 2.0 0.00 0.02 0.00 69 1018.0
20260503022944 66 8 1.0 3.0 0.00 0.02 0.00 69 1018.0
20260503022844 66 8 1.0 3.0 0.00 0.02 0.00 68 1017.9
20260503022743 66 8 1.0 3.0 0.00 0.02 0.00 68 1017.9
20260503022644 66 8 1.0 3.0 0.00 0.02 0.00 69 1017.8
20260503022545 66 8 1.0 3.0 0.00 0.02 0.00 68 1017.9
20260503022444 65 8 1.0 3.0 0.00 0.02 0.00 69 1017.8
20260503022343 66 8 1.0 3.0 0.00 0.02 0.00 69 1017.8
20260503022243 66 8 2.0 3.0 0.00 0.02 0.00 69 1017.9
20260503022143 66 8 2.0 3.0 0.00 0.02 0.00 68 1017.9
20260503022044 66 8 2.0 3.0 0.00 0.02 0.00 68 1017.9
20260503021943 66 8 1.0 2.0 0.00 0.02 0.00 70 1017.8
20260503021842 66 8 0.0 0.0 0.00 0.02 0.00 69 1017.9
20260503021744 66 8 0.0 0.0 0.00 0.02 0.00 69 1017.9
20260503021642 66 8 0.0 0.0 0.00 0.02 0.00 69 1017.9
20260503021544 66 8 0.0 0.0 0.00 0.02 0.00 68 1017.9
20260503021442 66 8 0.0 0.0 0.00 0.02 0.00 68 1017.8
20260503021343 66 8 0.0 0.0 0.00 0.02 0.00 68 1017.8
20260503021242 66 8 0.0 0.0 0.00 0.03 0.00 68 1018.0
20260503021143 66 8 0.0 0.0 0.00 0.03 0.00 68 1017.9
20260503021044 67 8 0.0 0.0 0.00 0.03 0.00 69 1017.9
20260503020942 67 8 0.0 0.0 0.00 0.03 0.00 68 1017.9
20260503020843 67 8 0.0 0.0 0.00 0.03 0.00 68 1017.9
20260503020743 67 8 0.0 0.0 0.00 0.03 0.00 68 1017.8
20260503020644 67 8 0.0 0.0 0.00 0.03 0.00 68 1017.9
20260503020542 67 8 0.0 1.0 0.00 0.03 0.00 68 1017.8
20260503020444 67 8 0.0 1.0 0.00 0.03 0.00 68 1017.8
20260503020342 67 8 0.0 1.0 0.00 0.03 0.00 67 1017.8
20260503020243 67 8 0.0 2.0 0.00 0.03 0.00 65 1017.7
20260503020143 67 8 0.0 2.0 0.00 0.03 0.00 66 1017.8
20260503020044 67 8 0.0 2.0 0.00 0.03 0.00 66 1017.7
20260503015942 67 8 0.0 2.0 0.00 0.03 0.00 66 1017.7
20260503015843 67 8 0.0 2.0 0.00 0.03 0.00 65 1017.7
20260503015743 68 8 0.0 2.0 0.00 0.03 0.00 66 1017.7
20260503015643 68 8 0.0 3.0 0.00 0.03 0.00 65 1017.7
20260503015542 68 8 0.0 3.0 0.00 0.03 0.00 65 1017.6
20260503015444 68 8 0.0 3.0 0.00 0.03 0.00 64 1017.7
20260503015342 68 8 0.0 3.0 0.00 0.03 0.00 63 1017.6
20260503015244 68 8 0.0 3.0 0.00 0.03 0.00 63 1017.6
20260503015143 68 8 1.0 3.0 0.00 0.03 0.00 62 1017.5
20260503015042 68 8 2.0 3.0 0.00 0.03 0.00 63 1017.5
20260503014942 68 8 1.0 3.0 0.00 0.04 0.00 61 1017.5
20260503014843 69 8 1.0 3.0 0.00 0.04 0.00 61 1017.5
20260503014743 69 8 2.0 3.0 0.00 0.04 0.00 61 1017.5
20260503014641 69 8 2.0 4.0 0.00 0.04 0.00 60 1017.4
20260503014542 69 8 2.0 4.0 0.00 0.04 0.00 60 1017.4
20260503014443 69 8 2.0 4.0 0.00 0.04 0.00 59 1017.4
20260503014342 69 7 2.0 4.0 0.00 0.04 0.00 59 1017.4
20260503014242 69 7 2.0 4.0 0.00 0.04 0.00 59 1017.4
20260503014141 69 7 2.0 4.0 0.00 0.04 0.00 59 1017.3
20260503014039 69 7 2.0 4.0 0.00 0.04 0.00 59 1017.3
20260503013938 69 7 2.0 4.0 0.00 0.04 0.00 59 1017.3
20260503013835 69 7 3.0 4.0 0.00 0.04 0.00 59 1017.3
20260503013734 69 7 3.0 4.0 0.00 0.04 0.00 59 1017.2
20260503013634 69 0 2.0 3.0 0.00 0.05 0.00 60 1017.3
20260503013530 69 0 2.0 3.0 0.00 0.05 0.00 61 1017.2
20260503013431 69 0 2.0 3.0 0.00 0.05 0.00 60 1017.2
20260503013331 69 0 2.0 3.0 0.00 0.06 0.00 60 1017.3
20260503013231 69 0 2.0 3.0 0.00 0.06 0.00 60 1017.3
20260503013131 69 0 1.0 3.0 0.00 0.06 0.00 60 1017.2
20260503013032 69 0 1.0 3.0 0.00 0.06 0.00 59 1017.2
20260503012931 69 0 1.0 3.0 0.00 0.06 0.00 59 1017.1
20260503012832 69 0 1.0 3.0 0.00 0.06 0.00 59 1017.2
20260503012730 69 0 2.0 3.0 0.00 0.07 0.00 58 1017.2
20260503012632 69 0 2.0 3.0 0.00 0.07 0.00 57 1017.2
20260503012531 70 0 2.0 3.0 0.00 0.07 0.00 56 1017.2
20260503012432 70 0 2.0 3.0 0.00 0.07 0.00 57 1017.1
20260503012333 70 0 2.0 3.0 0.00 0.08 0.00 56 1017.1
20260503012232 70 0 2.0 3.0 0.00 0.08 0.00 57 1017.1
20260503012131 70 0 2.0 3.0 0.00 0.08 0.00 57 1017.1
20260503012031 70 0 2.0 4.0 0.00 0.08 0.00 56 1017.1
20260503011932 70 0 2.0 4.0 0.00 0.08 0.00 56 1017.1
20260503011832 70 0 2.0 4.0 0.00 0.09 0.00 56 1017.1
20260503011731 70 0 2.0 4.0 0.00 0.09 0.00 56 1017.2
20260503011633 70 0 2.0 4.0 0.00 0.09 0.00 56 1017.2
20260503011532 70 0 2.0 4.0 0.00 0.09 0.00 56 1017.2
20260503011432 70 0 2.0 4.0 0.00 0.09 0.00 55 1017.2
20260503011307 70 0 2.0 4.0 0.00 0.09 0.00 55 1017.2
20260503011205 70 0 3.0 4.0 0.00 0.09 0.00 55 1017.1
20260503011104 70 0 3.0 5.0 0.00 0.09 0.00 54 1017.2
20260503011004 70 0 2.0 5.0 0.00 0.09 0.00 54 1017.2
20260503010903 71 0 2.0 5.0 0.00 0.09 0.00 54 1017.2
20260503010804 71 6 2.0 5.0 0.00 0.09 0.00 54 1017.1
20260503010703 71 4 3.0 5.0 0.00 0.09 0.00 54 1017.1
20260503010602 71 10 2.0 6.0 0.00 0.09 0.00 54 1017.1
20260503010502 71 28 2.0 6.0 0.00 0.10 0.00 54 1017.2
20260503010402 71 28 2.0 6.0 0.00 0.10 0.00 53 1017.1
20260503010302 71 28 3.0 6.0 0.00 0.10 0.00 53 1017.0
20260503010202 71 28 3.0 6.0 0.00 0.10 0.00 53 1017.0
20260503010002 71 18 3.0 6.0 0.00 0.10 0.00 53 1017.0
20260503005856 71 18 3.0 6.0 0.00 0.10 0.00 53 1017.0
20260503005755 71 21 4.0 6.0 0.00 0.10 0.00 53 1017.0
20260503005654 71 11 4.0 6.0 0.00 0.10 0.00 53 1017.0
20260503005552 71 18 4.0 6.0 0.00 0.10 0.00 53 1016.9
20260503005451 71 18 4.0 6.0 0.00 0.11 0.00 53 1017.0
20260503005350 71 0 4.0 6.0 0.00 0.11 0.00 53 1016.9
20260503005246 71 32 4.0 6.0 0.00 0.11 0.00 53 1016.9
20260503005142 71 13 3.0 5.0 0.00 0.12 0.00 53 1016.9
20260503005042 71 34 3.0 5.0 0.00 0.12 0.00 53 1016.9
20260503004941 71 32 3.0 5.0 0.00 0.12 0.00 53 1016.9
20260503004842 71 27 2.0 6.0 0.00 0.13 0.00 53 1016.8
20260503004741 71 27 3.0 7.0 0.00 0.13 0.00 53 1016.8
20260503004642 71 27 3.0 7.0 0.00 0.14 0.00 52 1016.8
20260503004541 72 27 3.0 7.0 0.00 0.14 0.00 52 1016.9
20260503004440 72 16 3.0 7.0 0.00 0.14 0.00 52 1016.8
20260503004341 72 14 3.0 7.0 0.00 0.14 0.00 52 1016.8
20260503004241 72 21 3.0 7.0 0.00 0.15 0.00 52 1016.8
20260503004142 72 18 3.0 10.0 0.00 0.15 0.00 51 1016.8
20260503004040 72 21 4.0 12.0 0.00 0.16 0.00 51 1016.7
20260503003940 72 0 4.0 12.0 0.00 0.16 0.00 51 1016.7
20260503003841 72 14 4.0 12.0 0.00 0.17 0.00 51 1016.7
20260503003740 72 13 4.0 12.0 0.00 0.17 0.00 51 1016.7
20260503003640 72 3 4.0 12.0 0.00 0.17 0.00 51 1016.7
20260503003540 72 10 4.0 12.0 0.00 0.17 0.00 51 1016.7
20260503003441 73 0 4.0 12.0 0.00 0.18 0.00 51 1016.7
20260503003341 73 4 6.0 12.0 0.00 0.18 0.00 51 1016.7
20260503003240 73 13 7.0 12.0 0.00 0.18 0.00 50 1016.6
20260503003142 73 16 6.0 12.0 0.00 0.18 0.00 51 1016.7
20260503003040 73 7 5.0 10.0 0.00 0.18 0.00 51 1016.6
20260503002940 73 190 5.0 11.0 0.00 0.18 0.00 51 1016.7
20260503002841 73 13 4.0 11.0 0.00 0.19 0.00 51 1016.6
20260503002741 73 13 3.0 11.0 0.00 0.19 0.00 51 1016.5
20260503002641 73 14 3.0 11.0 0.00 0.19 0.00 51 1016.6
20260503002541 73 16 4.0 11.0 0.00 0.19 0.00 50 1016.7
20260503002441 73 0 6.0 11.0 0.00 0.19 0.00 50 1016.6
20260503002340 73 32 7.0 11.0 0.00 0.19 0.00 49 1016.6
20260503002239 73 28 6.0 11.0 0.00 0.20 0.00 49 1016.6
20260503002140 73 16 7.0 11.0 0.00 0.20 0.00 49 1016.6
20260503002042 73 31 8.0 11.0 0.00 0.20 0.00 49 1016.6
20260503001940 73 28 6.0 10.0 0.00 0.20 0.00 49 1016.6
20260503001841 73 34 5.0 9.0 0.00 0.20 0.00 49 1016.6
20260503001741 73 27 4.0 10.0 0.00 0.20 0.00 49 1016.6
20260503001641 73 0 5.0 10.0 0.00 0.20 0.00 49 1016.6
20260503001541 73 20 6.0 10.0 0.00 0.20 0.00 49 1016.6
20260503001440 73 10 6.0 10.0 0.00 0.20 0.00 49 1016.6
20260503001340 74 44 5.0 13.0 0.00 0.21 0.00 49 1016.5
20260503001239 74 45 4.0 14.0 0.00 0.21 0.00 49 1016.5
20260503001140 74 7 3.0 14.0 0.00 0.21 0.00 49 1016.5
20260503001042 74 18 4.0 14.0 0.00 0.21 0.00 49 1016.5
20260503000940 74 0 5.0 14.0 0.00 0.21 0.00 48 1016.5
20260503000839 74 17 6.0 14.0 0.00 0.22 0.00 48 1016.5
20260503000739 74 17 5.0 14.0 0.00 0.22 0.00 48 1016.4
20260503000640 74 0 5.0 14.0 0.00 0.22 0.00 48 1016.4
20260503000539 74 18 7.0 14.0 0.00 0.23 0.00 48 1016.4
20260503000440 74 16 10.0 14.0 0.00 0.23 0.00 47 1016.4
20260503000341 74 32 8.0 14.0 0.00 0.23 0.00 48 1016.5
20260503000240 74 38 5.0 9.0 0.00 0.23 0.00 49 1016.4
20260503000140 74 14 5.0 9.0 0.00 0.23 0.00 49 1016.4
20260503000041 74 28 4.0 9.0 0.00 0.23 0.00 49 1016.4
20260502235940 74 28 4.0 9.0 0.00 0.24 0.00 49 1016.4
20260502235839 74 35 5.0 11.0 0.00 0.24 0.00 48 1016.3
20260502235739 74 38 6.0 11.0 0.00 0.24 0.00 48 1016.3
20260502235641 74 30 5.0 11.0 0.00 0.24 0.00 49 1016.4
20260502235540 74 13 4.0 12.0 0.00 0.24 0.00 48 1016.4
20260502235439 74 44 3.0 12.0 0.00 0.24 0.00 49 1016.3
20260502235339 74 18 5.0 12.0 0.00 0.24 0.00 48 1016.3
20260502235240 74 20 6.0 12.0 0.00 0.24 0.00 48 1016.4
20260502235140 74 39 6.0 12.0 0.00 0.24 0.00 48 1016.4
20260502235040 74 41 6.0 12.0 0.00 0.24 0.00 47 1016.3
20260502234940 74 35 6.0 12.0 0.00 0.24 0.00 47 1016.3
20260502234839 74 21 6.0 12.0 0.00 0.24 0.00 48 1016.4
20260502234739 74 0 7.0 12.0 0.00 0.24 0.00 47 1016.3
20260502234639 75 45 8.0 12.0 0.00 0.24 0.00 46 1016.4
20260502234540 75 44 6.0 12.0 0.00 0.24 0.00 46 1016.4
20260502234439 75 0 6.0 12.0 0.00 0.24 0.00 46 1016.3
20260502234339 75 0 6.0 12.0 0.00 0.24 0.00 46 1016.3
20260502234241 75 31 5.0 12.0 0.00 0.24 0.00 47 1016.4
20260502234139 75 39 6.0 12.0 0.00 0.24 0.00 47 1016.3
20260502234038 75 357 6.0 12.0 0.00 0.24 0.00 47 1016.4
20260502233940 75 25 6.0 12.0 0.00 0.24 0.00 46 1016.3
20260502233839 75 327 6.0 11.0 0.00 0.24 0.00 46 1016.3
20260502233740 75 344 5.0 10.0 0.00 0.25 0.00 47 1016.3
20260502233639 75 0 5.0 10.0 0.00 0.25 0.00 47 1016.3
20260502233541 75 331 6.0 10.0 0.00 0.25 0.00 46 1016.3
20260502233439 75 49 6.0 10.0 0.00 0.25 0.00 46 1016.3
20260502233338 75 1 5.0 10.0 0.00 0.25 0.00 47 1016.3
20260502233239 75 0 5.0 10.0 0.00 0.26 0.00 47 1016.2
20260502233139 75 0 5.0 10.0 0.00 0.26 0.00 47 1016.3
20260502233038 75 0 5.0 10.0 0.00 0.26 0.00 46 1016.3
20260502232940 75 350 5.0 9.0 0.00 0.26 0.00 46 1016.3
20260502232839 75 10 6.0 10.0 0.00 0.27 0.00 46 1016.3
20260502232740 75 28 5.0 10.0 0.00 0.31 0.00 46 1016.4
20260502232638 75 7 5.0 12.0 0.00 0.31 0.00 46 1016.4
20260502232541 75 24 5.0 15.0 0.00 0.31 0.00 46 1016.4
20260502232438 75 0 4.0 15.0 0.00 0.31 0.00 46 1016.4
20260502232338 75 0 4.0 15.0 0.00 0.31 0.00 46 1016.4
20260502232239 75 345 4.0 15.0 0.00 0.32 0.00 46 1016.4
20260502232140 75 23 4.0 15.0 0.00 0.32 0.00 46 1016.3
20260502232038 75 0 6.0 15.0 0.00 0.33 0.00 46 1016.3
20260502231932 75 32 6.0 15.0 0.00 0.34 0.00 46 1016.3
20260502231832 75 25 8.0 15.0 0.00 0.34 0.00 46 1016.3
20260502231731 75 30 7.0 15.0 0.00 0.34 0.00 45 1016.3
20260502231632 76 41 4.0 14.0 0.00 0.35 0.00 46 1016.3
20260502231533 75 14 4.0 14.0 0.00 0.35 0.00 46 1016.3
20260502231431 75 23 6.0 14.0 0.00 0.35 0.00 46 1016.3
20260502231331 76 25 6.0 14.0 0.00 0.36 0.00 46 1016.3
20260502231232 76 52 5.0 14.0 0.00 0.36 0.00 46 1016.3
20260502231131 76 351 7.0 14.0 0.00 0.36 0.00 46 1016.2
20260502231032 76 39 8.0 14.0 0.00 0.36 0.00 46 1016.2
20260502230932 76 47 5.0 14.0 0.00 0.36 0.00 46 1016.2
20260502230832 76 38 5.0 13.0 0.00 0.36 0.00 46 1016.2
20260502230732 76 6 6.0 13.0 0.00 0.36 0.00 46 1016.2
20260502230633 75 347 5.0 13.0 0.00 0.36 0.00 46 1016.2
20260502230531 75 0 6.0 15.0 0.00 0.36 0.00 46 1016.3
20260502230431 75 11 8.0 15.0 0.00 0.36 0.00 45 1016.2
20260502230332 75 51 9.0 15.0 0.00 0.36 0.00 45 1016.3
20260502230232 75 47 9.0 15.0 0.00 0.36 0.00 46 1016.2
20260502230131 75 30 8.0 15.0 0.00 0.36 0.00 45 1016.3
20260502230032 75 47 8.0 15.0 0.00 0.36 0.00 45 1016.2
20260502225932 75 39 7.0 15.0 0.00 0.36 0.00 44 1016.2
20260502225831 76 37 8.0 15.0 0.00 0.36 0.00 45 1016.2
20260502225731 76 16 10.0 15.0 0.00 0.36 0.00 44 1016.3
20260502225633 76 358 7.0 15.0 0.00 0.36 0.00 45 1016.2
20260502225532 76 44 5.0 13.0 0.00 0.36 0.00 44 1016.2
20260502225432 76 338 6.0 13.0 0.00 0.36 0.00 45 1016.2
20260502225331 76 7 6.0 13.0 0.00 0.36 0.00 45 1016.2
20260502225231 76 351 6.0 13.0 0.00 0.36 0.00 44 1016.2
20260502225131 76 6 7.0 13.0 0.00 0.36 0.00 44 1016.2
20260502225031 76 21 7.0 13.0 0.00 0.36 0.00 45 1016.2
20260502224930 76 17 7.0 12.0 0.00 0.36 0.00 46 1016.1
20260502224827 76 30 6.0 12.0 0.00 0.36 0.00 45 1016.1
20260502224725 76 4 6.0 12.0 0.00 0.36 0.00 44 1016.1
20260502224624 76 337 5.0 12.0 0.00 0.36 0.00 44 1016.1
20260502224522 76 3 5.0 12.0 0.00 0.36 0.00 45 1016.2
20260502224421 76 324 6.0 12.0 0.00 0.36 0.00 45 1016.2
20260502224319 76 41 5.0 12.0 0.00 0.36 0.00 44 1016.2
20260502224218 76 30 5.0 14.0 0.00 0.36 0.00 44 1016.2
20260502224116 76 0 6.0 14.0 0.00 0.36 0.00 45 1016.1
20260502224014 76 355 7.0 14.0 0.00 0.36 0.00 46 1016.1
20260502223916 76 14 8.0 14.0 0.00 0.36 0.00 45 1016.1
20260502223813 76 348 7.0 14.0 0.00 0.36 0.00 45 1016.2
20260502223710 76 16 6.0 14.0 0.00 0.36 0.00 45 1016.2
20260502223609 76 38 5.0 14.0 0.00 0.36 0.00 45 1016.2
20260502223508 76 54 4.0 14.0 0.00 0.36 0.00 45 1016.2
20260502223406 76 25 7.0 15.0 0.00 0.36 0.00 45 1016.2
20260502223306 76 0 7.0 15.0 0.00 0.36 0.00 45 1016.3
20260502223202 76 13 6.0 17.0 0.00 0.36 0.00 45 1016.3
20260502223103 76 8 6.0 17.0 0.00 0.36 0.00 45 1016.3
20260502223003 76 4 7.0 17.0 0.00 0.36 0.00 45 1016.2
20260502222902 76 20 8.0 17.0 0.00 0.36 0.00 45 1016.3
20260502222801 76 7 9.0 17.0 0.00 0.36 0.00 45 1016.3
20260502222702 76 28 10.0 17.0 0.00 0.36 0.00 45 1016.3
20260502222603 76 17 11.0 17.0 0.00 0.36 0.00 44 1016.3
20260502222502 76 37 11.0 17.0 0.00 0.36 0.00 44 1016.4
20260502222402 77 24 11.0 17.0 0.00 0.36 0.00 44 1016.3
20260502222305 77 32 10.0 17.0 0.00 0.36 0.00 44 1016.4
20260502222202 77 23 7.0 15.0 0.00 0.36 0.00 44 1016.3
20260502222103 77 39 6.0 15.0 0.00 0.36 0.00 43 1016.3
20260502222002 78 14 5.0 9.0 0.00 0.36 0.00 43 1016.4
20260502221903 78 6 3.0 9.0 0.00 0.36 0.00 44 1016.4
20260502221803 78 0 4.0 10.0 0.00 0.36 0.00 45 1016.4
20260502221703 77 62 3.0 10.0 0.00 0.36 0.00 45 1016.4
20260502221603 78 17 2.0 10.0 0.00 0.37 0.00 44 1016.3
20260502221504 77 14 3.0 10.0 0.00 0.37 0.00 45 1016.3
20260502221402 77 0 3.0 10.0 0.00 0.37 0.00 46 1016.4
20260502221300 77 23 4.0 10.0 0.00 0.37 0.00 46 1016.4
20260502221200 76 343 6.0 13.0 0.00 0.37 0.00 46 1016.5
20260502221100 76 7 5.0 14.0 0.00 0.37 0.00 46 1016.4
20260502220959 77 321 6.0 14.0 0.00 0.37 0.00 46 1016.4
20260502220857 77 11 7.0 14.0 0.00 0.37 0.00 46 1016.4
20260502220757 77 14 5.0 14.0 0.00 0.37 0.00 46 1016.4
20260502220654 76 0 4.0 14.0 0.00 0.37 0.00 46 1016.4
20260502220553 76 13 4.0 14.0 0.00 0.37 0.00 46 1016.3
20260502220452 76 329 5.0 14.0 0.00 0.37 0.00 46 1016.3
20260502220350 76 355 8.0 14.0 0.00 0.37 0.00 45 1016.4
20260502220249 76 333 10.0 14.0 0.00 0.37 0.00 45 1016.4
20260502220146 76 317 9.0 14.0 0.00 0.37 0.00 45 1016.4
20260502220046 77 358 8.0 14.0 0.00 0.37 0.00 45 1016.4
20260502215946 77 316 9.0 12.0 0.00 0.37 0.00 45 1016.3
20260502215846 76 0 8.0 15.0 0.00 0.37 0.00 44 1016.4
20260502215743 77 38 6.0 15.0 0.00 0.37 0.00 46 1016.3
20260502215641 77 17 5.0 15.0 0.00 0.37 0.00 46 1016.3
20260502215540 76 24 5.0 15.0 0.00 0.37 0.00 45 1016.4
20260502215438 76 319 6.0 15.0 0.00 0.37 0.00 46 1016.4
20260502215337 76 355 9.0 15.0 0.00 0.37 0.00 45 1016.4
20260502215238 76 17 8.0 15.0 0.00 0.37 0.00 45 1016.3
20260502215136 76 13 8.0 15.0 0.00 0.38 0.00 44 1016.4
20260502215036 76 21 10.0 15.0 0.00 0.38 0.00 44 1016.4
20260502214937 77 355 10.0 15.0 0.00 0.38 0.00 44 1016.4
20260502214838 77 3 6.0 15.0 0.00 0.38 0.00 45 1016.4
20260502214737 76 20 4.0 15.0 0.00 0.38 0.00 45 1016.4
20260502214637 76 7 4.0 15.0 0.00 0.39 0.00 45 1016.5
20260502214536 76 37 6.0 15.0 0.00 0.39 0.00 45 1016.5
20260502214437 77 3 8.0 15.0 0.00 0.39 0.00 44 1016.4
20260502214337 77 34 8.0 15.0 0.00 0.40 0.00 45 1016.5
20260502214236 77 353 8.0 15.0 0.00 0.40 0.00 44 1016.5
20260502214137 77 0 8.0 15.0 0.00 0.40 0.00 44 1016.5
20260502214036 77 14 5.0 12.0 0.00 0.40 0.00 44 1016.5
20260502213936 77 353 2.0 7.0 0.00 0.41 0.00 43 1016.5
20260502213836 76 11 3.0 10.0 0.00 0.41 0.00 44 1016.5
20260502213737 76 23 4.0 14.0 0.00 0.42 0.00 43 1016.4
20260502213636 76 24 4.0 14.0 0.00 0.42 0.00 43 1016.5
20260502213536 77 0 4.0 14.0 0.00 0.42 0.00 43 1016.5
20260502213437 77 34 3.0 14.0 0.00 0.43 0.00 44 1016.5
20260502213338 76 299 3.0 14.0 0.00 0.43 0.00 44 1016.5
20260502213236 76 296 5.0 14.0 0.00 0.44 0.00 44 1016.5
20260502213136 77 307 5.0 14.0 0.00 0.44 0.00 44 1016.6
20260502213038 77 351 6.0 14.0 0.00 0.44 0.00 44 1016.5
20260502212939 77 327 9.0 14.0 0.00 0.44 0.00 43 1016.5
20260502212835 78 357 7.0 14.0 0.00 0.45 0.00 44 1016.5
20260502212736 78 357 3.0 12.0 0.00 0.45 0.00 46 1016.6
20260502212636 78 320 3.0 12.0 0.00 0.45 0.00 46 1016.5
20260502212535 78 331 3.0 12.0 0.00 0.45 0.00 46 1016.5
20260502212437 77 17 4.0 12.0 0.00 0.45 0.00 45 1016.6
20260502212337 78 42 5.0 12.0 0.00 0.45 0.00 47 1016.5
20260502212237 77 0 6.0 12.0 0.00 0.45 0.00 45 1016.5
20260502212135 77 4 7.0 12.0 0.00 0.45 0.00 45 1016.5
20260502212035 77 11 6.0 12.0 0.00 0.45 0.00 45 1016.5
20260502211936 77 345 7.0 12.0 0.00 0.45 0.00 46 1016.5
20260502211836 77 355 6.0 11.0 0.00 0.45 0.00 45 1016.5
20260502211738 77 343 3.0 13.0 0.00 0.46 0.00 45 1016.5
20260502211636 76 28 3.0 13.0 0.00 0.46 0.00 45 1016.5
20260502211536 76 307 4.0 13.0 0.00 0.46 0.00 45 1016.5
20260502211435 76 283 4.0 13.0 0.00 0.46 0.00 45 1016.5
20260502211338 77 305 4.0 14.0 0.00 0.46 0.00 45 1016.6
20260502211236 77 319 4.0 14.0 0.00 0.46 0.00 45 1016.6
20260502211136 77 338 4.0 14.0 0.00 0.47 0.00 44 1016.6
20260502211035 76 327 5.0 14.0 0.00 0.47 0.00 45 1016.6
20260502210937 76 336 7.0 14.0 0.00 0.47 0.00 45 1016.7
20260502210835 76 331 9.0 14.0 0.00 0.47 0.00 45 1016.7
20260502210735 76 341 8.0 14.0 0.00 0.48 0.00 46 1016.6
20260502210636 76 16 7.0 14.0 0.00 0.48 0.00 45 1016.7
20260502210536 77 14 7.0 14.0 0.00 0.48 0.00 46 1016.7
20260502210436 77 7 8.0 14.0 0.00 0.48 0.00 46 1016.7
20260502210336 76 21 7.0 14.0 0.00 0.48 0.00 46 1016.7
20260502210236 76 348 6.0 14.0 0.00 0.48 0.00 45 1016.7
20260502210135 76 23 8.0 14.0 0.00 0.48 0.00 44 1016.7
20260502210035 77 8 8.0 14.0 0.00 0.48 0.00 46 1016.6
20260502205936 77 14 6.0 13.0 0.00 0.49 0.00 46 1016.7
20260502205835 77 353 4.0 13.0 0.00 0.49 0.00 46 1016.7
20260502205735 77 63 3.0 13.0 0.00 0.49 0.00 44 1016.6
20260502205636 77 0 5.0 13.0 0.00 0.50 0.00 45 1016.7
20260502205536 77 337 7.0 13.0 0.00 0.50 0.00 44 1016.7
20260502205435 77 343 4.0 13.0 0.00 0.50 0.00 45 1016.7
20260502205335 77 351 4.0 14.0 0.00 0.51 0.00 45 1016.7
20260502205237 77 45 5.0 14.0 0.00 0.51 0.00 45 1016.7
20260502205135 77 11 6.0 14.0 0.00 0.51 0.00 45 1016.6
20260502205036 77 8 6.0 14.0 0.00 0.52 0.00 45 1016.7
20260502204937 76 324 5.0 14.0 0.00 0.52 0.00 44 1016.6
20260502204836 76 344 6.0 14.0 0.00 0.53 0.00 43 1016.7
20260502204735 76 24 8.0 14.0 0.00 0.53 0.00 43 1016.7
20260502204635 76 35 8.0 14.0 0.00 0.54 0.00 44 1016.8